Flag for Norway Weather past 2 weeks in Finse, Norway

Now
49 °F

Cool.


Feels Like: 46 °F
Forecast: 36 / 44 °F
Wind: 6 mph from Northwest

Location: Finsevatn

Current Time: Jul 30, 2015 at 2:31:26 PM

Latest Report: Jul 30, 2015 at 1:00 PM


Visibility: N/A

Pressure: 29.57 "Hg (25.50 "Hg at 1221m altitude)

Humidity: 76%

Dew point: 41 °F

Location of FinseLocation

Historic Weather in Finse — Graph

°F

Finse temperature yesterday

Maximum temperature yesterday: 49 °F (at 3:00 PM)
Minimum temperature yesterday: 40 °F (at 2:00 AM)
Average temperature yesterday: 45 °F

Past Weeks' High & Low Weather Summary

 TemperatureHumidityPressure
High55 °F (Jul 17, 3:00 PM)97% (Jul 27, 3:00 AM)30.18 "Hg (Jul 27, 3:00 AM)
Low29 °F (Jul 17, 4:00 AM)44% (Jul 17, 4:00 PM)29.44 "Hg (Jul 26, 8:00 PM)
Average41 °F84%29.70 "Hg
* Reported Jul 15 1:00 PM — Jul 30 1:00 PM, Finse, Weather by CustomWeather, © 2015

Note: Actual official high and low records may vary slightly from our data, if they occured in-between our weather recording intervals... More about our weather records

Advertising

Finse weather history for previous 24 hours

 ConditionsComfort  
Time TempWeatherWind HumidityBarometerVisibility
1:00 PM
Thu, Jul 30
49 °FCool.6 mph76%29.57 "HgN/A
12:00 PM49 °FCool.6 mph74%29.55 "HgN/A
11:00 AM51 °FCool.3 mph68%29.50 "HgN/A
10:00 AM48 °FCool.1 mph77%29.55 "HgN/A
9:00 AM44 °FQuite cool.1 mph85%29.58 "HgN/A
8:00 AM41 °FQuite cool.1 mph91%29.60 "HgN/A
7:00 AM38 °FChilly.2 mph92%29.62 "HgN/A
6:00 AM38 °FChilly.1 mph95%29.62 "HgN/A
5:00 AM37 °FChilly.1 mph94%29.62 "HgN/A
4:00 AM38 °FChilly.1 mph94%29.61 "HgN/A
3:00 AM41 °FQuite cool.2 mph92%29.59 "HgN/A
2:00 AM41 °FQuite cool.1 mph92%29.59 "HgN/A
1:00 AM41 °FQuite cool.1 mph87%29.58 "HgN/A
12:00 AM44 °FQuite cool.3 mph84%29.54 "HgN/A
11:00 PM
Wed, Jul 29
44 °FQuite cool.3 mph86%29.54 "HgN/A
10:00 PM44 °FQuite cool.3 mph89%29.54 "HgN/A
9:00 PM46 °FCool.5 mph82%29.50 "HgN/A
8:00 PM48 °FCool.7 mph81%29.47 "HgN/A
7:00 PM47 °FCool.8 mph84%29.47 "HgN/A
6:00 PM48 °FCool.7 mph82%29.47 "HgN/A
5:00 PM47 °FCool.7 mph84%29.44 "HgN/A
4:00 PM48 °FCool.8 mph81%29.44 "HgN/A
3:00 PM49 °FCool.7 mph80%29.44 "HgN/A
2:00 PM48 °FCool.8 mph82%29.44 "HgN/A
Weather by CustomWeather, © 2015

See weather overviewHow to use our weather pages